Weather in Berezovo

Russia / Ryazan Oblast     54°05′30″N   39°17′31″E
temp.,
°C
wind,
m/s
gust,
m/s
humid.,
%
clouds,
%
prec.,
mm/h
press.,
hPa
HPBL,
m
4 march, thu
thu400:00−1w61291100 0.1 1011679
03:00−2wsw71591100 0.1 1009589
06:00−1wsw81593100 0.1 1006535
09:00−1wsw81589100 0.1 1005516
12:000w81386100 0.0 1003786
15:000w71190100 0.0 1002800
18:00−1w51194100 0.1 1001512
21:00−2w51196100 0.6 1001477
5 march, fri
fri500:00−2nw3696100 0.6 1001302
03:00−5nnw3597100 0.8 1003119
06:00−7nw3596100 0.1 1005106
09:00−8nw349567 0.1 1007118
12:00−4wnw36890 0.0 1009388
15:00−3wnw368711 0.0 1011695
18:00−6w349035 0.0 101231
21:00−9w338918 0.0 101521
6 march, sat
sat600:00−10wnw22890 0.0 101621
03:00−12wsw11900 0.0 101621
06:00−12wsw11911 0.0 101621
09:00−9s129238 0.0 101648
12:00−7s2289100 0.0 1015249
15:00−5sw1289100 0.1 1015332
18:00−8wsw129587 0.1 101521
21:00−7nnw499590 0.4 1017284
7 march, sun
sun700:00−13wnw349058 0.1 101745
03:00−13wsw479029 0.1 1016125
06:00−11sw6148929 0.0 1013274
09:00−7sw9178364 0.0 1009617
12:00−5sw111883100 0.0 10041129
15:00−3sw121992100 1.1 10001238
18:00−4nw101586100 1.6 1000882
21:00−10w447792 1.7 100354
8 march, mon
mon800:00−10sw511830 0.0 1003189
03:00−10sw612900 0.0 1001236
06:00−9sw614900 0.0 998332
09:00−6wnw10138727 0.5 998994
12:00−8wnw10148097 0.1 10011369
15:00−7wnw9157699 0.1 10051475
18:00−9wnw6138393 0.0 1008457
21:00−12wnw498847 0.0 1011161